Oxford, AL

10:52 PM CDT on August 27, 2016 (GMT -0500)
Anniston Metro

Weather History for KANB - October, 2012

Change the Weather History Date:

Wednesday, October 17, 2012

  Actual Average Record
Temperature  
Mean Temperature 63 °F 63 °F  
Max Temperature 76 °F 75 °F 88 °F (1965)
Min Temperature 49 °F 51 °F 31 °F (1954)
Degree Days  
Heating Degree Days 2    
Month to date heating degree days 50  
Since 1 July heating degree days 55  
Growing Degree Days 12 (Base 50)    
Moisture  
Dew Point 49 °F    
Average Humidity 66    
Maximum Humidity 100    
Minimum Humidity 31    
Precipitation  
Precipitation 0.00 in 0.10 in 0.61 in (2013)
Month to date precipitation 2.29 1.65  
Year to date precipitation 37.82 39.50  
Sea Level Pressure  
Sea Level Pressure 29.87 in    
Wind  
Wind Speed 4 mph (SE)    
Max Wind Speed 15 mph    
Max Gust Speed 22 mph    
Visibility 9 miles    
Events      
T = Trace of Precipitation, MM = Missing Value Source: NWS Daily Summary

Daily Weather History Graph

Daily Weather History Graph

Search for Another Location

Airport or City:

Trip Planner

Search our weather history database for the weather conditions in past years. The results will help you decide how hot, cold, wet, or windy it might be!

Date:

Astronomy

Oct. 17, 2012 Rise Set
Actual Time 6:50 AM CDT 6:06 PM CDT
Civil Twilight 6:24 AM CDT 6:31 PM CDT
Nautical Twilight 5:56 AM CDT 7:00 PM CDT
Astronomical Twilight 5:27 AM CDT 7:29 PM CDT
Moon 9:15 AM CDT (10/17) 7:51 PM CDT (10/17)
Length of Visible Light 12h 06m
Length of Day
11h 16m
Waxing Crescent, 7% of the Moon is Illuminated
Oct 17
Waxing Crescent
Oct 21
First Quarter
Oct 29
Full
Nov 6
Last Quarter
Nov 13
New

Hourly Weather History & Observations

Time (CDT) Temp. Dew Point Humidity Pressure Visibility Wind Dir Wind Speed Gust Speed Precip Events Conditions
12:53 AM 55.0 °F 53.1 °F 93% 29.91 in 9.0 mi ESE 3.5 mph - N/A   Clear
1:53 AM 54.0 °F 52.0 °F 93% 29.91 in 8.0 mi Calm Calm - N/A   Clear
2:53 AM 55.0 °F 53.1 °F 93% 29.90 in 8.0 mi Calm Calm - N/A   Clear
3:53 AM 52.0 °F 51.1 °F 97% 29.93 in 8.0 mi Calm Calm - N/A   Clear
4:53 AM 51.1 °F 50.0 °F 96% 29.92 in 7.0 mi Calm Calm - N/A   Clear
5:53 AM 51.1 °F 50.0 °F 96% 29.92 in 7.0 mi Calm Calm - N/A   Clear
6:53 AM 48.9 °F 48.0 °F 97% 29.94 in 7.0 mi Calm Calm - N/A   Clear
7:53 AM 53.1 °F 50.0 °F 89% 29.94 in 7.0 mi ENE 5.8 mph - N/A   Clear
8:53 AM 59.0 °F 52.0 °F 78% 29.94 in 9.0 mi ENE 4.6 mph - N/A   Clear
9:53 AM 66.0 °F 51.1 °F 59% 29.94 in 10.0 mi ENE 4.6 mph - N/A   Clear
10:53 AM 71.1 °F 46.0 °F 41% 29.92 in 10.0 mi SSE 8.1 mph - N/A   Clear
11:53 AM 73.0 °F 44.1 °F 35% 29.91 in 10.0 mi SSE 9.2 mph 17.3 mph N/A   Clear
12:53 PM 73.9 °F 45.0 °F 35% 29.86 in 10.0 mi SE 5.8 mph - N/A   Clear
1:53 PM 75.0 °F 45.0 °F 34% 29.83 in 10.0 mi Variable 5.8 mph - N/A   Clear
2:53 PM 75.9 °F 42.1 °F 30% 29.81 in 10.0 mi SSW 5.8 mph - N/A   Clear
3:53 PM 75.9 °F 43.0 °F 31% 29.80 in 10.0 mi South 8.1 mph - N/A   Clear
4:53 PM 75.0 °F 46.0 °F 36% 29.80 in 10.0 mi South 5.8 mph - N/A   Clear
5:53 PM 70.0 °F 48.0 °F 46% 29.81 in 10.0 mi SSW 3.5 mph - N/A   Clear
6:53 PM 62.1 °F 52.0 °F 70% 29.83 in 10.0 mi Calm Calm - N/A   Clear
7:53 PM 59.0 °F 53.1 °F 81% 29.83 in 10.0 mi ENE 3.5 mph - N/A   Clear
8:53 PM 57.9 °F 53.1 °F 84% 29.83 in 10.0 mi Calm Calm - N/A   Clear
9:53 PM 60.1 °F 53.1 °F 78% 29.79 in 9.0 mi SE 5.8 mph - N/A   Clear
10:53 PM 68.0 °F 52.0 °F 56% 29.77 in 10.0 mi South 10.4 mph - N/A   Clear
11:53 PM 66.9 °F 51.1 °F 57% 29.76 in 10.0 mi South 3.5 mph - N/A   Clear